Starlink 4683

operational
NORAD ID: 53712 Int'l Des: 2022-107 Owner: SPXS Country: US Constellation: starlink
LEOCIRCULAR

Über Starlink 4683

Beschreibung wird geladen...

Live-Position

3D-Globus wird geladen...

Nächste Überflüge

Höhenverlauf

Altitude vs Time

uPlot chart will show altitude changes over time

Zweizeiliger Elementsatz

1 53712U 22107N 26034.99383846 .00000475 00000-0 47950-4 0 9990
2 53712 53.2181 39.9353 0001479 83.3707 276.7453 15.08840124189411
Epoch: 3. Feb. 2026 • Age: 24 hours

Aktueller Status

Höhe 542.8 km
Geschwindigkeit 7.59 km/s
Subsatellitenpunkt -10.74°S, 102.36°W
Startdatum 5. Sept. 2022
Alter 3.4 years
Typ internet

Technische Details

Klassifizierung Payload
Masse 305.00 kg
Trockenmasse 290.00 kg
Gesamtmasse 305.00 kg
Länge 0.20 m
Durchmesser 2.80 m
Spannweite 9.00 m
Form Box + pan
Hersteller SPXS
Bus-Typ Starlink
Phasenstatus In Orbit
Besitzer/Staat SPXS/US

Große Konstellationen

Loading constellations...